Location: Arbon
(43.0005°N, 0.7472°E)
Time: 23:24:25
(UTC+00:00)

Explorer 11/Cluster Stage 4 - Visible Passes

Search period start: 05 December 2020 00:00
Search period end: 15 December 2020 00:00
Orbit: 467 x 1258 km, 28.8° (Epoch: 05 December)

Date Brightness Start Highest point End Pass type
(mag) Time Alt. Az. Time Alt. Az. Time Alt. Az.
05 Dec 9.0 18:17:13 10° SSW 18:23:02 21° SSE 18:26:31 16° SE visible
05 Dec 9.1 20:04:52 10° SW 20:08:39 22° SSW 20:08:39 22° SSW visible
06 Dec 9.0 18:05:45 10° SW 18:11:50 23° SSE 18:16:17 15° SE visible
06 Dec 8.9 19:53:33 10° SW 19:58:24 25° SSW 19:58:24 25° SSW visible
07 Dec 9.0 17:54:22 10° SW 18:00:38 25° SSE 18:06:01 12° ESE visible
07 Dec 8.7 19:42:18 10° WSW 19:48:09 28° SSW 19:48:09 28° SSW visible
08 Dec 9.0 17:43:02 10° SW 17:49:26 26° S 17:55:48 10° ESE visible
08 Dec 8.7 19:31:04 10° WSW 19:37:47 28° S 19:37:55 28° S visible
09 Dec 8.9 17:31:46 10° SW 17:38:13 27° S 17:44:44 10° ESE visible
09 Dec 8.7 19:19:53 10° WSW 19:26:35 28° S 19:27:42 27° S visible
09 Dec 9.9 21:09:36 10° WSW 21:09:50 11° WSW 21:09:50 11° WSW visible
10 Dec 9.0 17:20:34 10° SW 17:27:01 27° S 17:33:39 10° ESE visible
10 Dec 8.8 19:08:45 10° WSW 19:15:23 27° S 19:17:31 24° SSE visible
10 Dec 9.8 20:58:39 10° WSW 20:59:40 12° SW 20:59:40 12° SW visible
11 Dec 9.0 17:09:25 10° SW 17:15:48 28° S 17:22:29 10° ESE visible
11 Dec 8.9 18:57:40 10° WSW 19:04:10 27° S 19:07:25 21° SSE visible
11 Dec 9.7 20:47:47 10° WSW 20:49:33 13° SW 20:49:33 13° SW visible
12 Dec 9.0 16:58:20 10° SW 17:04:36 28° S 17:11:18 10° ESE visible
12 Dec 9.0 18:46:38 10° WSW 18:52:57 26° S 18:57:22 16° SSE visible
12 Dec 9.6 20:37:03 10° SW 20:39:31 14° SW 20:39:31 14° SW visible
13 Dec 9.0 16:47:18 10° SW 16:53:25 28° S 17:00:03 10° ESE visible
13 Dec 9.1 18:35:39 10° WSW 18:41:44 24° SSW 18:47:25 12° SE visible
13 Dec 9.6 20:26:30 10° SW 20:29:35 13° SSW 20:29:35 13° SSW visible
14 Dec 9.2 18:24:44 10° WSW 18:30:32 23° SSW 18:36:34 10° SSE visible
14 Dec 9.7 20:16:21 10° SW 20:18:34 11° SSW 20:19:46 11° SSW visible
